RH
15 14 13 13 13 12 12 12 11 11 11 11 11 11 12 13 14 14 15 17 18 19 20 21 21 22 23 23 24 24 25 26 26 26 25 25 23 22 20 19 18 16 15 13 12 12 10 10 10 10 9 9
13 12 11 11 11 10 10 9 9 10 10 10 10 11 13 14 15 15 17 18 19 19 19 20 21 22 23 24 25 26 27 27 28 28 28 27 26 24 22 21 19 17 16 14 12 10 8 7 7 8 6 6
10 10 10 9 8 8 8 8 8 8 9 10 11 13 14 14 14 15 16 17 18 19 20 20 21 21 22 23 24 25 26 28 29 30 29 29 27 25 22 20 18 17 16 13 12 10 7 5 5 6 5 6
8 8 7 7 7 7 7 7 8 9 10 11 12 12 13 13 14 16 17 18 18 18 18 18 19 19 21 24 25 27 29 30 31 31 31 30 29 25 22 18 16 14 13 11 9 8 6 4 4 4 3 5
7 7 6 6 6 6 7 8 9 9 10 10 11 11 13 15 16 17 16 16 16 16 18 19 22 25 28 30 31 32 32 33 32 33 33 33 32 28 23 19 16 12 10 8 6 5 4 3 3 2 3 3
6 6 6 6 6 7 7 8 8 8 9 10 12 13 15 15 15 15 15 16 18 21 24 27 30 32 34 35 35 35 34 34 34 34 34 33 33 31 27 20 15 12 9 7 6 5 3 3 2 2 3 2
6 6 6 6 6 7 7 8 8 8 10 12 13 14 14 14 14 15 17 20 24 28 31 33 34 33 34 34 34 35 35 35 35 36 35 34 33 33 32 25 19 13 10 8 6 6 4 3 2 2 3 2
6 6 6 6 7 7 7 8 9 10 12 13 14 14 14 15 16 19 21 24 27 29 31 31 31 29 29 28 30 33 35 36 35 36 35 35 34 34 34 31 27 19 12 8 6 6 5 5 3 3 3 1
6 6 6 7 7 7 8 9 11 12 13 14 15 15 16 17 18 21 22 24 26 26 26 26 27 26 25 25 27 30 32 33 33 33 33 34 35 35 35 34 33 27 19 11 8 8 6 6 5 3 4 1
6 6 6 7 7 8 10 11 12 13 14 14 15 15 16 17 18 20 21 22 23 23 23 23 24 24 24 24 24 25 27 29 29 30 30 31 33 34 35 34 34 33 28 19 11 10 8 7 7 5 5 3
5 5 7 7 8 10 11 12 14 14 14 15 15 16 17 18 19 20 20 20 20 21 21 22 23 24 24 25 24 24 25 27 28 28 29 30 32 32 32 32 33 34 33 28 19 13 11 9 9 7 5 5
4 5 7 8 9 10 12 14 15 15 15 15 16 16 17 18 19 19 19 19 19 20 22 23 24 25 25 25 25 25 25 27 28 28 29 30 31 31 31 31 31 32 34 34 28 19 15 12 10 10 8 7
5 6 6 8 10 12 13 14 14 15 16 16 16 16 17 19 19 20 20 20 21 23 25 25 25 25 25 25 26 26 27 28 29 30 30 30 30 30 30 29 29 30 32 35 34 26 18 15 12 10 10 8
6 7 7 9 12 14 13 13 13 14 16 16 16 17 19 21 21 20 20 21 23 24 25 25 24 24 25 27 28 28 29 29 30 31 31 31 31 30 30 29 28 28 30 33 36 33 23 16 13 10 10 9
7 7 9 11 12 12 12 11 12 14 15 17 19 21 23 23 22 22 22 23 25 26 26 26 26 28 29 31 31 30 31 31 32 33 33 32 31 31 30 28 28 27 27 31 35 37 29 17 12 10 9 9
6 7 9 10 11 11 12 12 13 16 18 21 24 26 27 27 27 27 27 27 27 27 27 28 29 31 31 32 33 33 33 34 34 36 35 35 34 32 30 28 27 26 25 27 32 36 35 23 12 9 9 9
6 8 9 10 12 13 14 14 16 20 22 24 26 28 31 31 32 31 30 29 28 28 28 30 31 31 32 32 34 35 35 34 34 36 37 37 36 33 31 29 27 26 25 25 29 33 35 28 16 10 9 9
7 8 10 12 14 15 16 17 19 22 23 25 27 31 33 34 34 33 32 31 29 28 29 31 32 32 32 33 33 34 34 34 34 35 37 37 36 34 31 29 27 25 24 23 26 30 31 27 19 12 10 10
8 9 11 12 14 16 17 19 21 23 24 26 29 32 32 31 31 31 31 30 29 28 29 31 32 32 33 34 34 34 34 34 35 34 35 36 36 34 31 29 28 25 23 22 24 28 28 25 19 13 11 11
8 9 11 12 14 16 18 20 23 24 25 27 30 30 28 27 28 29 29 29 29 29 29 30 31 33 34 36 36 35 35 34 34 34 34 36 35 34 32 30 28 25 22 22 23 26 27 24 20 15 12 12
9 10 11 13 15 17 19 20 23 24 25 27 28 26 24 24 26 27 29 31 31 31 30 30 31 33 35 36 35 34 34 34 33 34 34 35 35 33 31 29 28 25 22 21 22 25 26 24 20 16 14 13
9 10 11 13 15 17 18 20 21 23 25 26 25 23 23 23 24 26 31 34 35 34 32 32 32 34 36 35 34 32 32 33 33 34 34 34 34 32 30 29 27 25 22 21 22 23 24 23 20 17 15 14
9 10 11 12 14 15 17 18 20 21 23 24 23 22 22 22 24 27 33 36 38 38 35 35 35 36 38 37 36 34 31 31 34 35 34 33 32 32 30 29 27 24 22 21 21 22 22 22 21 19 17 15
9 10 10 12 13 14 15 17 18 20 21 22 22 22 21 22 25 30 35 39 41 40 38 38 38 39 40 40 39 38 34 32 34 35 34 32 32 31 30 28 27 24 22 21 20 21 21 22 21 20 18 17
8 9 10 11 12 12 13 15 17 18 19 20 21 21 21 23 27 32 37 41 42 41 40 39 40 42 43 44 42 41 39 37 35 36 35 33 31 31 30 30 28 25 23 22 21 21 21 21 20 20 19 18
8 9 10 10 11 12 12 14 15 16 18 19 20 20 21 24 28 33 37 39 40 39 39 40 41 44 46 47 47 45 45 43 40 38 37 36 35 33 32 32 30 28 25 23 22 21 21 20 20 20 20 19
10 9 10 10 10 11 12 13 14 15 17 17 18 19 21 24 27 31 33 34 35 35 36 38 42 45 48 50 51 50 50 49 46 42 40 39 39 38 36 35 33 30 28 26 24 22 22 21 21 20 19 20
11 10 11 11 11 11 12 13 14 15 16 17 18 19 21 24 26 28 29 30 31 33 34 36 39 43 47 50 52 54 55 54 51 46 43 43 44 44 42 39 37 35 32 29 27 26 25 24 23 22 21 20
11 11 12 12 12 12 13 13 14 15 16 17 18 20 22 23 25 27 28 30 30 31 32 33 36 38 42 46 51 55 57 57 54 50 47 46 48 50 48 44 41 38 36 33 32 31 29 29 27 27 26 24
12 12 12 13 13 14 14 14 15 15 16 17 18 20 23 23 24 25 26 28 29 30 31 32 33 35 37 41 46 52 57 59 59 57 53 50 52 55 53 49 46 44 41 37 36 35 35 34 33 33 31 30
13 13 13 14 14 15 16 16 16 17 17 17 19 21 22 23 23 24 24 25 26 28 30 31 33 34 34 36 40 46 54 61 64 63 61 56 55 57 56 53 51 50 48 44 40 39 38 38 37 37 36 34
Wind_Speed
26 27 27 28 28 29 29 30 31 32 32 33 34 34 35 35 36 36 36 37 37 37 37 37 38 38 38 38 38 38 38 39 39 38 38 38 38 38 38 37 37 37 37 36 36 36 36 37 37 36 36 36
27 27 28 28 29 29 30 31 32 32 33 33 34 34 34 35 36 37 37 37 38 38 38 38 38 38 38 39 39 39 40 40 40 39 39 39 38 38 38 38 37 37 37 36 36 36 35 35 36 35 34 34
27 27 28 28 29 30 31 31 32 32 32 33 33 34 35 35 36 37 37 37 37 37 37 38 38 39 39 40 40 40 40 40 40 40 40 39 39 38 38 37 37 37 36 36 36 35 34 35 35 34 33 33
27 27 28 28 29 30 30 31 31 32 32 33 34 34 34 34 34 34 35 35 36 37 38 38 39 39 39 39 39 39 39 39 39 39 39 39 39 38 38 37 37 37 36 35 35 35 34 33 33 33 32 32
26 27 28 28 29 29 30 30 31 32 32 33 33 32 32 32 33 34 35 35 36 36 37 37 37 37 37 37 37 37 37 38 38 38 38 37 37 37 37 37 37 36 35 35 34 33 33 32 32 32 31 31
26 26 27 28 28 29 29 30 30 31 31 31 30 31 32 33 34 35 35 35 35 35 35 35 36 36 36 37 37 37 37 36 36 36 36 36 36 36 36 36 35 35 34 34 33 32 32 31 30 30 30 30
25 26 27 27 27 28 29 29 29 29 29 29 30 31 32 33 34 34 34 34 34 34 34 34 35 35 35 36 36 36 35 35 35 34 34 34 34 34 34 34 34 34 34 33 32 32 31 30 29 29 28 28
25 26 26 26 27 27 27 27 27 27 28 29 31 32 33 33 33 33 33 33 34 34 34 34 35 35 35 35 35 35 35 34 34 34 34 34 33 33 33 33 33 33 32 32 31 31 31 30 29 28 27 26
25 25 26 26 26 26 26 26 26 27 29 30 31 31 32 32 33 33 33 33 34 34 34 34 34 35 35 36 35 35 36 36 36 36 36 35 35 35 34 34 33 32 31 31 30 29 29 29 29 27 26 25
24 24 24 24 24 24 25 26 27 28 29 30 30 31 31 32 32 33 33 33 33 33 34 34 34 35 35 36 36 36 36 37 37 37 36 36 36 36 35 35 34 33 31 30 29 28 28 28 28 27 26 25
23 23 23 23 23 24 25 26 27 28 29 30 30 30 31 32 32 33 33 33 33 33 33 34 34 35 36 37 37 37 37 37 37 37 36 36 35 35 35 35 34 33 31 30 29 28 28 27 27 27 26 25
22 22 22 22 23 24 25 26 27 28 29 30 30 30 31 31 32 33 33 33 33 33 33 34 35 35 36 37 38 38 38 38 38 37 36 35 35 34 34 34 34 33 32 30 29 28 27 27 26 26 26 25
21 21 22 23 24 24 26 27 28 29 29 30 30 30 30 31 32 33 33 34 34 34 34 35 35 36 37 38 38 39 39 38 38 37 36 36 35 35 34 34 33 33 32 31 29 28 27 27 26 25 25 25
21 21 22 23 24 25 26 27 28 28 28 28 29 29 30 31 32 33 34 34 34 34 35 36 36 37 37 38 38 38 38 38 38 37 37 36 36 36 35 34 34 33 32 31 29 28 27 27 26 25 24 24
21 22 22 23 24 25 25 26 26 26 26 27 28 29 30 32 33 34 34 34 34 35 35 36 36 36 36 37 37 37 38 37 37 37 37 37 37 36 36 35 34 34 33 32 30 28 27 27 26 25 24 24
20 21 22 23 23 23 24 24 24 25 26 27 28 30 31 32 33 34 35 35 35 35 35 36 36 36 36 37 37 37 38 38 37 37 37 37 37 36 36 36 35 35 34 32 31 29 28 27 27 26 25 24
20 20 21 21 21 22 22 23 24 25 26 28 29 30 31 32 33 34 35 35 36 36 36 37 37 37 37 37 37 37 37 37 37 37 37 37 37 36 36 36 35 35 34 33 31 29 28 27 27 26 25 25
19 19 19 20 20 21 21 22 24 25 26 27 28 30 31 32 33 34 35 36 37 37 37 38 38 38 37 37 37 37 37 37 37 37 36 36 37 37 37 36 36 36 35 33 31 30 28 27 27 27 26 25
19 18 19 19 19 20 21 22 23 24 25 26 28 29 30 31 33 34 35 36 37 38 38 38 38 37 37 37 37 37 37 37 37 37 36 36 37 37 37 37 37 36 35 33 31 29 28 27 27 27 27 26
18 18 18 19 19 20 20 21 23 24 25 26 27 28 30 31 32 33 34 35 36 37 37 37 36 36 36 37 38 38 38 37 36 36 36 37 37 37 37 37 36 36 35 33 31 29 28 27 26 26 26 26
18 18 19 19 19 20 20 21 22 23 24 25 26 28 29 30 31 32 33 33 35 36 36 36 35 35 36 37 38 38 38 37 37 37 37 37 37 37 37 37 36 35 35 33 31 29 28 27 27 26 26 25
19 19 19 20 20 20 21 21 22 22 23 25 26 27 28 29 30 31 32 32 34 35 35 35 35 35 36 37 38 39 38 38 37 36 36 37 37 37 38 37 36 34 34 32 31 29 28 28 27 26 25 25
19 20 20 21 21 21 21 22 22 22 23 25 26 27 28 29 30 30 31 31 32 34 35 35 35 35 36 37 38 39 39 38 36 36 36 37 37 37 37 36 35 35 33 32 31 30 28 27 27 27 25 25
20 21 21 21 22 22 22 22 22 23 24 25 26 27 28 28 29 29 30 31 32 33 34 34 35 35 36 37 38 38 38 38 37 36 37 37 37 36 36 35 34 34 33 32 31 31 30 29 28 27 26 25
21 21 22 22 22 22 23 23 23 24 24 25 26 27 28 28 28 29 29 30 31 32 33 34 34 35 36 37 37 38 38 38 37 37 37 37 36 36 35 35 34 33 32 32 31 30 30 29 28 27 26 26
22 22 22 22 23 23 23 24 24 24 25 25 26 27 27 28 28 28 29 29 30 32 33 34 34 35 36 36 37 37 37 38 38 37 37 36 36 36 36 36 35 33 31 31 30 30 29 29 28 27 26 25
23 23 23 23 24 24 24 25 25 25 25 26 26 27 27 27 28 28 29 29 30 32 33 34 35 35 35 36 36 37 38 38 38 37 37 36 36 36 36 36 35 34 32 31 30 30 30 29 29 28 27 26
23 23 24 24 25 25 25 25 26 26 26 26 27 27 27 27 28 28 29 30 31 32 33 34 35 35 36 36 36 37 38 39 39 38 38 37 37 37 37 37 35 34 33 31 30 30 30 30 30 29 29 28
24 24 24 25 25 25 26 26 27 27 26 27 27 27 28 28 28 29 30 30 31 32 33 34 35 36 36 36 36 37 38 39 39 39 39 39 38 38 38 37 36 34 33 32 31 30 31 31 31 30 30 29
24 25 25 25 26 26 26 26 27 27 27 28 28 28 28 29 29 30 30 31 32 33 34 34 35 36 36 37 36 37 37 38 39 40 40 40 39 39 39 37 35 34 33 33 31 30 30 30 31 31 31 30
25 25 26 26 26 27 26 27 27 27 28 28 28 29 29 30 30 30 31 32 33 34 34 35 36 36 37 37 37 37 37 38 39 40 41 41 41 40 39 37 35 33 32 32 32 31 30 29 30 31 31 31
Wind_Direction
330 331 331 331 332 332 333 335 336 337 338 339 339 338 338 337 337 337 337 337 336 335 335 334 332 331 330 328 327 327 326 325 324 323 323 322 321 319 318 317 315 313 310 308 306 303 301 298 296 294 293 291
332 333 333 334 335 336 337 338 339 339 339 339 339 339 339 339 339 339 338 337 336 334 333 332 331 330 330 329 329 328 327 326 325 325 324 324 323 322 321 320 319 317 315 313 310 307 305 302 298 296 294 292
335 336 336 337 338 338 339 339 339 340 339 340 341 341 341 340 340 338 337 335 334 334 333 333 332 332 332 331 330 329 328 327 326 325 325 325 325 325 324 324 323 321 320 318 315 312 310 306 302 299 296 292
339 339 340 340 340 340 340 340 341 341 341 342 342 341 340 339 337 336 336 336 336 335 334 334 333 333 332 331 329 328 327 326 326 325 325 325 325 326 326 326 326 326 325 324 321 318 315 311 307 303 298 294
343 342 341 341 341 341 341 342 342 343 342 342 340 339 338 338 338 338 337 337 336 335 334 333 333 333 332 331 330 329 328 327 326 325 325 325 325 326 326 327 328 328 328 328 326 324 321 317 312 306 302 297
344 342 342 341 341 342 343 343 342 342 340 339 338 339 340 340 339 338 337 336 335 335 334 335 334 334 333 332 330 330 329 328 327 326 326 326 325 325 325 326 328 328 328 328 328 328 326 324 319 313 306 300
343 343 342 342 342 343 342 342 340 339 339 339 340 341 340 340 338 337 336 336 336 336 336 335 334 333 332 331 330 330 330 329 329 328 327 327 327 326 325 324 325 326 327 328 329 329 329 328 326 322 315 306
343 343 342 342 342 342 340 339 339 339 340 341 342 341 339 338 337 337 337 337 337 336 335 334 333 333 332 332 332 331 330 330 329 328 327 327 327 327 327 325 323 323 325 327 328 329 330 330 330 329 325 317
343 342 341 341 340 338 338 339 339 340 342 342 341 339 339 338 337 337 337 337 336 335 335 334 334 333 333 333 333 332 331 330 329 329 328 327 326 326 326 326 325 322 322 324 327 329 329 330 330 331 332 327
340 340 340 339 337 337 338 340 341 342 342 341 339 339 338 338 337 337 337 337 335 335 335 335 334 334 334 334 334 333 332 331 330 330 329 328 326 325 324 324 324 323 320 320 323 326 329 329 329 330 331 331
339 338 338 337 337 339 340 341 342 342 341 340 339 339 338 338 337 337 337 337 337 336 337 337 336 336 336 336 336 335 334 333 333 332 331 329 328 327 325 324 323 322 320 318 317 321 325 326 328 328 329 330
339 338 338 339 340 341 342 343 342 342 340 340 339 339 339 338 338 338 339 340 339 339 339 340 339 339 338 337 337 336 336 335 334 333 332 332 331 330 329 327 325 323 320 317 315 315 318 321 324 325 326 326
340 340 341 342 343 344 344 343 343 341 340 339 339 340 340 340 340 342 342 342 342 342 342 342 341 340 339 338 337 337 337 336 335 334 334 334 333 333 331 330 327 324 321 318 315 313 313 315 318 320 322 323
343 344 345 345 346 345 345 344 342 340 339 339 340 342 342 343 344 344 345 344 344 344 343 342 341 340 339 339 338 338 338 337 337 336 336 335 335 334 333 332 329 326 323 320 317 313 311 311 312 314 316 319
347 348 348 348 347 345 344 342 340 339 339 341 343 344 345 346 346 346 347 347 347 346 344 342 341 340 340 339 339 339 339 339 338 337 336 336 336 335 334 333 331 328 325 322 319 314 312 310 310 310 311 313
350 350 350 348 346 344 342 340 339 339 341 343 344 345 346 347 348 348 349 349 348 347 345 344 342 341 341 341 341 340 340 339 339 337 337 336 336 336 334 333 332 330 327 323 320 317 314 311 309 309 308 309
353 352 350 347 345 344 342 340 341 342 343 344 344 345 345 346 347 348 349 349 348 347 346 345 344 343 343 343 343 343 342 340 339 338 337 337 336 336 334 333 333 331 328 324 321 319 315 313 310 308 307 307
355 353 350 348 346 344 343 342 343 343 343 344 343 343 344 345 346 347 348 347 347 346 345 345 345 345 345 345 346 345 344 342 340 339 338 337 337 336 334 333 332 331 329 326 322 321 318 315 312 310 308 307
356 354 352 350 349 347 346 344 343 343 342 342 342 342 343 344 345 345 346 346 345 345 345 345 345 346 346 346 346 345 344 342 341 339 338 338 336 335 334 333 332 331 329 327 325 322 320 317 314 311 309 308
357 356 355 353 351 349 348 345 343 342 341 341 340 341 342 343 343 343 344 344 344 343 343 344 345 345 345 345 344 343 341 341 340 339 338 337 335 334 334 333 332 331 330 329 327 325 323 321 317 314 311 309
358 357 356 354 352 350 348 346 343 342 341 340 340 340 341 341 341 341 341 341 342 342 342 343 344 344 344 343 343 341 340 339 339 339 338 335 334 334 334 334 332 331 330 329 328 327 325 323 320 317 314 311
358 358 357 355 353 351 348 346 344 342 341 340 339 339 339 339 339 339 338 339 339 340 341 341 341 342 342 342 342 341 340 340 339 338 338 336 334 334 334 333 333 331 331 330 330 328 326 325 322 320 316 313
358 357 357 355 353 351 348 345 344 342 341 339 339 338 337 337 337 336 336 336 337 338 339 339 339 339 339 340 340 341 341 340 339 338 338 337 336 335 335 334 333 332 331 331 330 329 328 326 324 321 319 315
357 356 355 353 351 348 346 344 342 342 341 339 338 336 336 336 334 333 333 334 334 335 336 336 336 336 336 337 338 339 340 340 340 338 338 337 337 337 337 336 334 333 332 331 331 330 329 328 326 323 321 318
356 355 353 351 348 346 344 342 341 341 340 338 336 335 334 334 332 331 331 331 331 331 332 333 334 334 334 335 336 337 338 339 338 338 338 337 336 336 337 338 336 334 332 331 330 330 329 327 325 324 321 319
354 352 350 347 345 344 342 341 340 339 338 336 335 334 333 332 331 330 329 329 329 329 329 330 330 331 332 333 334 334 335 336 336 336 336 336 336 335 335 336 335 334 332 330 329 328 327 326 325 324 322 320
351 349 346 345 343 342 341 339 338 337 336 335 334 333 331 330 329 328 327 327 326 327 327 327 327 327 328 329 330 331 331 332 333 333 334 334 334 335 335 334 333 332 330 329 328 327 328 328 326 324 322 321
348 346 344 342 341 340 339 337 336 335 334 332 332 331 329 328 327 326 326 326 325 325 325 324 324 324 324 326 326 327 328 328 329 330 331 332 332 333 334 333 331 331 329 328 328 328 328 327 326 325 324 323
344 343 341 340 339 338 337 336 334 333 331 330 329 328 328 327 327 326 325 325 324 323 323 322 321 321 322 323 323 324 324 324 325 326 328 329 330 330 331 330 329 329 328 327 328 328 328 327 326 325 324 322
341 340 339 338 337 337 336 334 332 331 330 329 328 326 326 326 326 325 324 323 323 322 321 320 320 320 320 320 321 321 321 321 321 322 324 325 326 328 328 328 327 326 326 326 326 326 326 326 325 324 322 321
338 337 336 336 336 335 335 333 331 330 328 327 326 325 324 324 324 324 323 322 322 320 320 319 318 318 318 319 318 318 318 317 318 318 320 321 323 325 327 327 326 324 323 323 323 323 325 325 324 323 322 321